User: anonymous   Login
Location: Unspecified
(0.0000°N, 0.0000°E)
Time: 20:27:58
(UTC+01:00)
Language:

deb Ariane - Orbit

View from above orbital plane
View from above orbital plane
View from above satellite
View from above satellite

Ground track
Ground track

The orbit data is extracted from the following two-line orbital elements,

1 25668U 92060E   14352.50668073  .01528227  00000-0  55050-3 0  8033
2 25668 007.4810 345.6375 4453470 355.4169 001.5900 06.83571782255804
Epoch (UTC): 18 December 2014 12:09:37
Eccentricity: 0.4453470
inclination: 7.4810°
perigee height: 126 km
apogee height: 10572 km
right ascension of ascending node: 345.6375°
argument of perigee: 355.4169°
revolutions per day: 6.83571782
mean anomaly at epoch: 1.5900°
orbit number at epoch: 25580

The dashed part of the orbit path shows where the satellite is in the earth's shadow,  

DLR